CCA984 KLAX-ZBAA

Flight info

Callsign CCA984
Flight time N/A
Altitude 30000
Route SUMMR2 SCTRR DCT PYE J143 ENI DCT FOT DCT BOXER DCT HEMLO/N0487F320 DCT 46N130W 50N135W 53N140W DCT GRIZZ DCT BET/N0488F340 DCT MUNRI DCT RUSOR/K0907F340 T658 TK G370 BANOT T634 GIRUD/K0887F360 T634 MAGIT/K0902S1100 R213 JMU G212 UKDUM W49 OSUBA OSUBA6J
Aircraft B77W/H-SDE1E2E3FGHIJ2J3J4J5M1RWXY/LB1D1

Departure

Time 2026-04-22 17:54
Airport Los Angeles International Airport (KLAX)

Arrival

Time N/A
Airport Beijing Capital International Airport (ZBAA)
Time Latitude Longitude Altitude Speed Heading
2026-04-22 17:23 33.93962 -118.40925 101 ft 0 kts 290°
2026-04-22 17:39 33.93958 -118.40912 101 ft 4 kts 290°
2026-04-22 17:40 33.93949 -118.40885 100 ft 1 kts 290°
2026-04-22 17:40 33.93943 -118.40859 100 ft 4 kts 271°
2026-04-22 17:40 33.93946 -118.40834 98 ft 4 kts 235°
2026-04-22 17:40 33.93958 -118.40820 100 ft 4 kts 193°
2026-04-22 17:41 33.93981 -118.40819 98 ft 4 kts 173°
2026-04-22 17:41 33.94006 -118.40823 99 ft 1 kts 173°
2026-04-22 17:41 33.94007 -118.40823 99 ft 0 kts 173°
2026-04-22 17:46 33.94002 -118.40822 100 ft 5 kts 173°
2026-04-22 17:46 33.93919 -118.40804 100 ft 14 kts 155°
2026-04-22 17:46 33.93839 -118.40736 107 ft 14 kts 142°
2026-04-22 17:46 33.93815 -118.40626 107 ft 15 kts 86°
2026-04-22 17:47 33.93833 -118.40451 108 ft 22 kts 83°
2026-04-22 17:47 33.93850 -118.40269 109 ft 22 kts 83°
2026-04-22 17:47 33.93869 -118.40093 109 ft 22 kts 83°
2026-04-22 17:47 33.93886 -118.39914 109 ft 22 kts 83°
2026-04-22 17:48 33.93899 -118.39793 108 ft 22 kts 82°
2026-04-22 17:48 33.93923 -118.39554 108 ft 22 kts 83°
2026-04-22 17:48 33.93942 -118.39375 106 ft 22 kts 82°
2026-04-22 17:48 33.93960 -118.39196 107 ft 22 kts 83°
2026-04-22 17:49 33.93979 -118.39019 106 ft 22 kts 83°
2026-04-22 17:49 33.93997 -118.38840 106 ft 22 kts 83°
2026-04-22 17:49 33.94013 -118.38661 107 ft 22 kts 83°
2026-04-22 17:49 33.94033 -118.38482 108 ft 22 kts 83°
2026-04-22 17:50 33.94045 -118.38354 108 ft 13 kts 83°
2026-04-22 17:50 33.94058 -118.38240 108 ft 15 kts 83°
2026-04-22 17:50 33.94070 -118.38114 108 ft 15 kts 84°
2026-04-22 17:50 33.94074 -118.38046 108 ft 0 kts 96°
2026-04-22 17:52 33.94073 -118.38044 108 ft 2 kts 101°
2026-04-22 17:52 33.94043 -118.38012 109 ft 11 kts 154°
2026-04-22 17:52 33.93979 -118.38032 113 ft 9 kts 245°
2026-04-22 17:53 33.93976 -118.38092 113 ft 0 kts 263°
2026-04-22 17:53 33.93975 -118.38099 114 ft 6 kts 263°
2026-04-22 17:53 33.93958 -118.38278 112 ft 49 kts 263°
2026-04-22 17:53 33.93885 -118.38988 109 ft 120 kts 263°
2026-04-22 17:54 33.93755 -118.40239 114 ft 179 kts 263°
2026-04-22 17:54 33.93556 -118.41895 194 ft 210 kts 260°
2026-04-22 17:54 33.93333 -118.43607 971 ft 203 kts 261°
2026-04-22 17:54 33.93153 -118.45332 1571 ft 211 kts 263°
2026-04-22 17:55 33.93057 -118.46494 1983 ft 210 kts 264°
2026-04-22 17:55 33.92883 -118.48931 2315 ft 230 kts 264°
2026-04-22 17:55 33.92739 -118.50875 2630 ft 242 kts 264°
2026-04-22 17:55 33.92584 -118.52951 2983 ft 254 kts 264°
2026-04-22 17:56 33.92414 -118.55084 3601 ft 256 kts 265°
2026-04-22 17:56 33.92240 -118.57218 4256 ft 255 kts 265°
2026-04-22 17:56 33.92063 -118.59366 4812 ft 261 kts 265°
2026-04-22 17:56 33.91881 -118.61556 5357 ft 265 kts 265°
2026-04-22 17:57 33.91732 -118.63759 5944 ft 267 kts 269°
2026-04-22 17:57 33.91711 -118.66001 6571 ft 268 kts 271°
2026-04-22 17:57 33.91720 -118.68244 7178 ft 268 kts 271°
2026-04-22 17:57 33.91729 -118.70490 7795 ft 268 kts 271°
2026-04-22 17:58 33.91732 -118.72751 8369 ft 270 kts 271°
2026-04-22 17:58 33.91729 -118.75018 8960 ft 271 kts 271°
2026-04-22 17:58 33.91723 -118.77289 9566 ft 271 kts 271°
2026-04-22 17:58 33.91713 -118.79570 10138 ft 273 kts 271°
2026-04-22 17:59 33.91703 -118.81910 10367 ft 288 kts 271°
2026-04-22 17:59 33.91704 -118.84359 10501 ft 305 kts 272°
2026-04-22 17:59 33.91777 -118.86986 10649 ft 323 kts 273°
2026-04-22 17:59 33.91876 -118.89768 10835 ft 339 kts 273°
2026-04-22 18:00 33.91941 -118.91658 11107 ft 345 kts 273°
2026-04-22 18:00 33.92063 -118.95588 11842 ft 353 kts 272°
2026-04-22 18:00 33.92150 -118.98547 12558 ft 354 kts 272°
2026-04-22 18:00 33.92432 -119.01473 13167 ft 355 kts 285°
2026-04-22 18:01 33.93445 -119.04199 13779 ft 359 kts 300°
2026-04-22 18:01 33.94778 -119.06708 14377 ft 362 kts 300°
2026-04-22 18:01 33.96147 -119.09280 15019 ft 364 kts 300°
2026-04-22 18:01 33.97505 -119.11869 15685 ft 366 kts 299°
2026-04-22 18:02 33.98856 -119.14476 16320 ft 368 kts 299°
2026-04-22 18:02 34.00218 -119.17109 16927 ft 369 kts 300°
2026-04-22 18:02 34.01863 -119.19500 17378 ft 382 kts 315°
2026-04-22 18:02 34.04031 -119.21410 17871 ft 388 kts 320°
2026-04-22 18:03 34.06273 -119.23276 18432 ft 392 kts 320°
2026-04-22 18:03 34.08516 -119.25157 18976 ft 394 kts 319°
2026-04-22 18:03 34.10768 -119.27062 19501 ft 396 kts 319°
2026-04-22 18:03 34.13032 -119.28992 19988 ft 400 kts 319°
2026-04-22 18:04 34.15284 -119.30923 20458 ft 403 kts 318°
2026-04-22 18:04 34.17583 -119.32901 20948 ft 406 kts 318°
2026-04-22 18:04 34.19891 -119.34890 21435 ft 409 kts 318°
2026-04-22 18:04 34.22219 -119.36899 21924 ft 412 kts 318°
2026-04-22 18:05 34.24565 -119.38926 22385 ft 415 kts 318°
2026-04-22 18:05 34.26895 -119.40939 22839 ft 418 kts 317°
2026-04-22 18:05 34.29271 -119.42994 23293 ft 421 kts 317°
2026-04-22 18:05 34.31667 -119.45067 23741 ft 424 kts 317°
2026-04-22 18:06 34.34082 -119.47158 24121 ft 427 kts 317°
2026-04-22 18:06 34.36506 -119.49257 24525 ft 428 kts 317°
2026-04-22 18:06 34.38117 -119.50653 24804 ft 430 kts 317°
2026-04-22 18:06 34.41379 -119.53483 25334 ft 432 kts 317°
2026-04-22 18:07 34.42974 -119.54910 25586 ft 432 kts 316°
2026-04-22 18:07 34.46166 -119.57895 26096 ft 434 kts 315°
2026-04-22 18:07 34.47747 -119.59403 26364 ft 435 kts 315°
2026-04-22 18:07 34.50132 -119.61683 26733 ft 437 kts 315°
2026-04-22 18:08 34.52530 -119.63975 27081 ft 439 kts 315°
2026-04-22 18:08 34.54941 -119.66267 27337 ft 442 kts 315°
2026-04-22 18:08 34.57351 -119.68554 27683 ft 444 kts 315°
2026-04-22 18:08 34.59784 -119.70859 28061 ft 445 kts 315°
2026-04-22 18:09 34.62230 -119.73173 28399 ft 446 kts 315°
2026-04-22 18:09 34.64696 -119.75507 28756 ft 448 kts 315°
2026-04-22 18:09 34.67163 -119.77842 29100 ft 448 kts 315°
2026-04-22 18:09 34.69625 -119.80174 29406 ft 450 kts 315°
2026-04-22 18:10 34.72074 -119.82498 29579 ft 454 kts 315°
2026-04-22 18:10 34.74575 -119.84873 29858 ft 456 kts 315°
2026-04-22 18:10 34.77083 -119.87256 30141 ft 457 kts 315°
2026-04-22 18:11 34.82116 -119.92046 30214 ft 458 kts 315°
2026-04-22 18:11 34.87077 -119.96766 30226 ft 453 kts 315°